W2DSX-2 Weather Reports


Display with metric or nautical units.
time (UTC)temp
F
wind
direction
speed
MPH
gust
MPH
rain 1hr
in
rain 24hr
in
rain mn
in
humidity
%
barometer
mb
20260502163002 56 17 2.0 5.0 0.00 0.02 0.02 63 1011.6
20260502161504 56 77 1.0 3.0 0.00 0.02 0.02 65 1011.5
20260502123002 52 34 1.0 3.0 0.00 0.02 0.02 79 1012.2
20260502121504 51 91 1.0 3.0 0.00 0.02 0.02 81 1012.2
20260502114502 51 357 1.0 3.0 0.00 0.02 0.02 86 1012.5
20260502113002 51 253 0.0 1.0 0.00 0.02 0.02 87 1012.5
20260502111504 51 239 0.0 0.0 0.02 0.02 0.02 86 1012.0
20260502110004 50 239 0.0 0.0 0.02 0.02 0.02 86 1011.5
20260502103001 51 255 0.0 1.0 0.02 0.02 0.02 82 1011.5
20260502091502 51 234 2.0 4.0 0.00 0.00 0.00 79 1011.8
20260502071503 51 236 2.0 5.0 0.00 0.00 0.00 75 1011.6
20260502070004 51 261 2.0 5.0 0.00 0.00 0.00 74 1011.8
20260502064504 51 250 3.0 5.0 0.00 0.00 0.00 74 1011.8
20260502061503 51 207 3.0 9.0 0.00 0.00 0.00 72 1011.9
20260502060004 51 234 2.0 4.0 0.00 0.00 0.00 71 1012.2
20260502053000 51 253 0.0 2.0 0.00 0.00 0.00 70 1011.9
20260502051502 52 209 2.0 5.0 0.00 0.00 0.00 70 1011.8
20260502050006 52 197 1.0 3.0 0.00 0.00 0.00 67 1011.8
20260502043003 52 245 1.0 4.0 0.00 0.00 0.00 65 1011.9
20260502041503 52 233 1.0 3.0 0.00 0.00 0.00 65 1012.1
20260502040009 52 256 1.0 3.0 0.00 0.00 0.00 67 1012.0
20260502034503 52 212 3.0 8.0 0.00 0.00 0.00 68 1012.1
20260502031503 52 223 3.0 8.0 0.00 0.00 0.00 71 1012.1
20260502023004 51 165 4.0 8.0 0.00 0.00 0.00 78 1012.4
20260502021504 51 195 4.0 9.0 0.00 0.00 0.00 78 1012.2
20260502020007 51 210 3.0 9.0 0.00 0.00 0.00 78 1012.4
20260502014502 51 214 4.0 9.0 0.00 0.00 0.00 78 1012.3
20260502010005 51 193 4.0 10.0 0.00 0.00 0.00 74 1011.9
20260502004504 52 214 4.0 10.0 0.00 0.00 0.00 72 1011.9
20260502003005 52 158 5.0 11.0 0.00 0.00 0.00 70 1011.9
20260502001503 52 192 4.0 10.0 0.00 0.00 0.00 71 1011.9
20260502000006 52 193 5.0 12.0 0.00 0.00 0.00 71 1011.6
20260501234502 52 193 4.0 9.0 0.00 0.00 0.00 72 1011.4
20260501233005 52 180 5.0 12.0 0.00 0.00 0.00 71 1011.3
20260501231503 53 174 5.0 10.0 0.00 0.00 0.00 70 1011.1
20260501230006 53 198 5.0 13.0 0.00 0.00 0.00 69 1011.0
20260501224502 53 112 4.0 10.0 0.00 0.00 0.00 69 1011.1
20260501221502 54 186 4.0 10.0 0.00 0.00 0.00 66 1011.3
20260501220007 54 209 6.0 15.0 0.00 0.00 0.00 66 1011.3
20260501213001 55 175 7.0 14.0 0.00 0.01 0.00 63 1011.1
20260501210005 55 158 5.0 12.0 0.00 0.01 0.00 61 1011.2
20260501204502 56 183 6.0 15.0 0.00 0.01 0.00 58 1011.1
20260501203004 56 257 8.0 16.0 0.00 0.01 0.00 57 1011.2
20260501201504 57 160 8.0 18.0 0.00 0.01 0.00 52 1011.1
20260501200005 58 227 7.0 15.0 0.00 0.01 0.00 50 1011.0
20260501193004 60 209 5.0 14.0 0.00 0.01 0.00 48 1011.0
20260501191503 61 247 5.0 10.0 0.00 0.01 0.00 45 1011.0
20260501190006 61 278 6.0 13.0 0.00 0.01 0.00 43 1011.3
20260501184501 60 237 5.0 11.0 0.00 0.01 0.00 43 1011.5
20260501181505 59 260 6.0 11.0 0.00 0.01 0.00 43 1011.7
20260501180007 58 224 6.0 11.0 0.00 0.01 0.00 42 1011.7
20260501174501 59 267 5.0 10.0 0.00 0.01 0.00 43 1011.8
20260501173005 58 279 5.0 11.0 0.00 0.01 0.00 43 1011.9